• Em Portugal
  • Lista de países
  • Para 7 dias
  • Temperatura da água
  • Mapas de satélite
  • Mapa do tempo
  • Widgets de tempo
  • user-avatar
    Iniciar Sessão

    Previsão horária em Kapan

    Hoje, 22 Janeiro, Segunda-feira

    Tempo Temperatura Precipitação Vento Pressão Humidade
    00:00 +4°C° 0 mm 3 m/s 685 mmHg 43%
    01:00 +4°C° 0 mm 3 m/s 685 mmHg 43%
    02:00 +4°C° 0 mm 3 m/s 684 mmHg 43%
    03:00 +5°C° 0 mm 2 m/s 684 mmHg 43%
    04:00 +5°C° 0 mm 2 m/s 684 mmHg 43%
    05:00 +5°C° 0 mm 2 m/s 684 mmHg 42%
    06:00 +5°C° 0 mm 2 m/s 683 mmHg 42%
    07:00 +6°C° 0 mm 2 m/s 683 mmHg 42%
    08:00 +7°C° 0 mm 2 m/s 683 mmHg 41%
    09:00 +8°C° 0 mm 2 m/s 683 mmHg 41%
    10:00 +9°C° 0 mm 2 m/s 683 mmHg 40%
    11:00 +10°C° 0 mm 2 m/s 682 mmHg 39%
    12:00 +13°C° 0 mm 2 m/s 682 mmHg 38%
    13:00 +13°C° 0 mm 2 m/s 681 mmHg 38%
    14:00 +13°C° 0 mm 2 m/s 681 mmHg 38%
    15:00 +13°C° 0 mm 2 m/s 680 mmHg 38%
    16:00 +10°C° 0 mm 2 m/s 680 mmHg 40%
    17:00 +8°C° 0 mm 2 m/s 680 mmHg 41%
    18:00 +7°C° 0 mm 2 m/s 680 mmHg 43%
    19:00 +6°C° 0 mm 2 m/s 680 mmHg 41%
    20:00 +5°C° 0 mm 3 m/s 680 mmHg 38%
    21:00 +5°C° 0 mm 3 m/s 679 mmHg 36%
    22:00 +4°C° 0 mm 3 m/s 679 mmHg 35%
    23:00 +4°C° 0 mm 3 m/s 679 mmHg 35%

    Amanhã, 23 Janeiro, Terça-feira

    Tempo Temperatura Precipitação Vento Pressão Humidade
    00:00 +4°C° 0 mm 3 m/s 679 mmHg 34%
    01:00 +4°C° 0 mm 3 m/s 679 mmHg 35%
    02:00 +3°C° 0 mm 3 m/s 679 mmHg 37%
    03:00 +3°C° 0 mm 3 m/s 679 mmHg 38%
    04:00 +3°C° 0 mm 3 m/s 679 mmHg 39%
    05:00 +3°C° 0 mm 3 m/s 679 mmHg 40%
    06:00 +2°C° 0 mm 3 m/s 679 mmHg 40%
    07:00 +3°C° 0 mm 3 m/s 680 mmHg 39%
    08:00 +4°C° 0 mm 3 m/s 680 mmHg 38%
    09:00 +5°C° 0 mm 3 m/s 680 mmHg 38%
    10:00 +8°C° 0 mm 3 m/s 680 mmHg 35%
    11:00 +9°C° 0 mm 3 m/s 680 mmHg 33%
    12:00 +10°C° 0 mm 3 m/s 680 mmHg 30%
    13:00 +11°C° 0 mm 3 m/s 680 mmHg 31%
    14:00 +11°C° 0 mm 3 m/s 680 mmHg 32%
    15:00 +12°C° 0 mm 2 m/s 679 mmHg 33%
    16:00 +9°C° 0 mm 2 m/s 680 mmHg 35%
    17:00 +8°C° 0 mm 2 m/s 680 mmHg 38%
    18:00 +7°C° 0 mm 2 m/s 680 mmHg 40%
    19:00 +7°C° 0 mm 2 m/s 680 mmHg 40%
    20:00 +6°C° 0 mm 2 m/s 680 mmHg 40%
    21:00 +6°C° 0 mm 2 m/s 680 mmHg 40%
    22:00 +6°C° 0 mm 2 m/s 680 mmHg 41%
    23:00 +6°C° 0 mm 2 m/s 680 mmHg 42%

    Depois de amanhã, 24 Janeiro, Quarta-feira

    Tempo Temperatura Precipitação Vento Pressão Humidade
    00:00 +6°C° 0 mm 2 m/s 680 mmHg 42%
    01:00 +6°C° 0 mm 2 m/s 680 mmHg 44%
    02:00 +5°C° 0 mm 2 m/s 680 mmHg 46%
    03:00 +5°C° 0 mm 2 m/s 680 mmHg 48%
    04:00 +5°C° 0 mm 2 m/s 681 mmHg 50%
    05:00 +5°C° 0 mm 2 m/s 681 mmHg 53%
    06:00 +5°C° 0 mm 2 m/s 681 mmHg 55%
    07:00 +5°C° 0 mm 2 m/s 682 mmHg 54%
    08:00 +6°C° 0 mm 2 m/s 682 mmHg 53%
    09:00 +6°C° 0 mm 2 m/s 683 mmHg 52%
    10:00 +7°C° 0 mm 2 m/s 683 mmHg 49%
    11:00 +8°C° 0 mm 2 m/s 683 mmHg 47%
    12:00 +9°C° 0 mm 2 m/s 683 mmHg 45%
    13:00 +9°C° 0 mm 2 m/s 683 mmHg 45%
    14:00 +9°C° 0 mm 2 m/s 683 mmHg 45%
    15:00 +9°C° 0 mm 2 m/s 683 mmHg 45%
    16:00 +8°C° 0 mm 2 m/s 683 mmHg 48%
    17:00 +7°C° 0 mm 1 m/s 683 mmHg 52%
    18:00 +6°C° 0 mm 1 m/s 684 mmHg 55%
    19:00 +6°C° 0 mm 1 m/s 684 mmHg 56%
    20:00 +5°C° 0 mm 1 m/s 684 mmHg 57%
    21:00 +5°C° 0 mm 1 m/s 685 mmHg 58%
    22:00 +5°C° 0 mm 1 m/s 685 mmHg 60%
    23:00 +5°C° 0 mm 1 m/s 685 mmHg 62%

    25 Janeiro, Quinta-feira

    Tempo Temperatura Precipitação Vento Pressão Humidade
    00:00 +4°C° 0 mm 1 m/s 685 mmHg 64%
    01:00 +4°C° 0 mm 1 m/s 685 mmHg 66%
    02:00 +4°C° 0 mm 1 m/s 685 mmHg 69%
    03:00 +4°C° 0 mm 1 m/s 685 mmHg 71%
    04:00 +4°C° 0,1 mm 1 m/s 685 mmHg 74%
    05:00 +3°C° 0,1 mm 1 m/s 685 mmHg 76%
    06:00 +3°C° 0,1 mm 1 m/s 686 mmHg 78%
    07:00 +3°C° 0,1 mm 2 m/s 686 mmHg 78%
    08:00 +3°C° 0,1 mm 2 m/s 686 mmHg 77%
    09:00 +3°C° 0,1 mm 2 m/s 686 mmHg 76%
    10:00 +4°C° 0,1 mm 2 m/s 686 mmHg 75%
    11:00 +4°C° 0,1 mm 2 m/s 686 mmHg 73%
    12:00 +4°C° 0,1 mm 3 m/s 686 mmHg 71%
    13:00 +4°C° 0,1 mm 3 m/s 685 mmHg 72%
    14:00 +4°C° 0,1 mm 3 m/s 685 mmHg 73%
    15:00 +4°C° 0,1 mm 3 m/s 685 mmHg 74%
    16:00 +3°C° 0,1 mm 3 m/s 685 mmHg 77%
    17:00 +3°C° 0,1 mm 3 m/s 685 mmHg 81%
    18:00 +3°C° 0,1 mm 2 m/s 685 mmHg 85%
    19:00 +3°C° 0,2 mm 2 m/s 686 mmHg 85%
    20:00 +2°C° 0,2 mm 2 m/s 686 mmHg 86%
    21:00 +2°C° 0,2 mm 2 m/s 686 mmHg 86%
    22:00 +2°C° 0,1 mm 2 m/s 686 mmHg 86%
    23:00 +2°C° 0,1 mm 2 m/s 686 mmHg 86%

    26 Janeiro, Sexta-feira

    Tempo Temperatura Precipitação Vento Pressão Humidade
    00:00 +2°C° 0,1 mm 2 m/s 686 mmHg 86%
    01:00 +1°C° 0,4 mm 2 m/s 686 mmHg 86%
    02:00 +1°C° 0,4 mm 2 m/s 686 mmHg 87%
    03:00 +1°C° 0,4 mm 2 m/s 685 mmHg 87%
    04:00 +1°C° 0,5 mm 2 m/s 685 mmHg 87%
    05:00 +1°C° 0,5 mm 2 m/s 685 mmHg 87%
    06:00 +1°C° 0,5 mm 2 m/s 685 mmHg 87%
    07:00 +1°C° 0,3 mm 2 m/s 685 mmHg 86%
    08:00 +1°C° 0,3 mm 2 m/s 685 mmHg 85%
    09:00 +1°C° 0,3 mm 3 m/s 685 mmHg 84%
    10:00 +1°C° 0,5 mm 3 m/s 685 mmHg 84%
    11:00 +1°C° 0,5 mm 3 m/s 685 mmHg 83%
    12:00 +1°C° 0,5 mm 3 m/s 684 mmHg 83%
    13:00 +2°C° 0,8 mm 2 m/s 684 mmHg 83%
    14:00 +2°C° 0,8 mm 2 m/s 684 mmHg 84%
    15:00 +2°C° 0,8 mm 2 m/s 684 mmHg 84%
    16:00 +1°C° 0,3 mm 2 m/s 684 mmHg 85%
    17:00 +1°C° 0,3 mm 2 m/s 684 mmHg 86%
    18:00 +1°C° 0,3 mm 2 m/s 684 mmHg 87%
    19:00 -1°C° 0,3 mm 2 m/s 684 mmHg 87%
    20:00 -1°C° 0,3 mm 2 m/s 684 mmHg 87%
    21:00 -1°C° 0,3 mm 2 m/s 684 mmHg 88%
    22:00 -1°C° 0,3 mm 2 m/s 684 mmHg 88%
    23:00 +1°C° 0,3 mm 1 m/s 684 mmHg 88%

    27 Janeiro, Sábado

    Tempo Temperatura Precipitação Vento Pressão Humidade
    00:00 +1°C° 0,3 mm 1 m/s 684 mmHg 88%
    01:00 +1°C° 0,2 mm 1 m/s 684 mmHg 88%
    02:00 +1°C° 0,2 mm 1 m/s 684 mmHg 88%
    03:00 0°C° 0,2 mm 1 m/s 684 mmHg 89%
    04:00 0°C° 0,2 mm 1 m/s 684 mmHg 88%
    05:00 0°C° 0,2 mm 1 m/s 684 mmHg 88%
    06:00 0°C° 0,2 mm 1 m/s 684 mmHg 88%
    07:00 +1°C° 0,2 mm 1 m/s 685 mmHg 86%
    08:00 +1°C° 0,2 mm 1 m/s 685 mmHg 85%
    09:00 -1°C° 0,2 mm 2 m/s 686 mmHg 83%
    10:00 +1°C° 0,2 mm 2 m/s 686 mmHg 81%
    11:00 +1°C° 0,2 mm 2 m/s 686 mmHg 80%
    12:00 +2°C° 0,2 mm 2 m/s 685 mmHg 78%
    13:00 +2°C° 0,2 mm 2 m/s 685 mmHg 78%
    14:00 +2°C° 0,2 mm 2 m/s 685 mmHg 78%
    15:00 +2°C° 0,2 mm 2 m/s 685 mmHg 78%
    16:00 +1°C° 0,2 mm 2 m/s 686 mmHg 81%
    17:00 +1°C° 0,2 mm 2 m/s 686 mmHg 84%
    18:00 +1°C° 0,2 mm 1 m/s 686 mmHg 87%
    19:00 +1°C° 0,2 mm 1 m/s 686 mmHg 87%
    20:00 0°C° 0,2 mm 1 m/s 687 mmHg 86%
    21:00 0°C° 0,2 mm 1 m/s 687 mmHg 86%
    22:00 0°C° 0,1 mm 1 m/s 687 mmHg 84%
    23:00 0°C° 0,1 mm 1 m/s 687 mmHg 83%
    Mostrar mais